Forside
METAR-TAF:

METAR-TAF

Lufthavne :

Porter County Municipal Airport

Valparaiso, Indiana, USA

Breddekreds: 41-27-11N, længdekreds: 086-59-53W, højde: 234 m

Aktuelle vejr

Denne rapport blev lavet for 1 time og 13 minutter siden, kl. 12:56 UTC
Vind 5 kt fra nord
Temperatur 2°C
Fugtighed 80%
Tryk 1018 hPa
Sigt: 16.1 km
Overskyet i en højde af 1300 ft

METAR: KVPZ 311256Z AUTO 01005KT 10SM OVC013 02/M01 A3005 RMK AO2 SLP181 T00221006

Tid: 09:09 (14:09 UTC)


TAF: fraværende

Vejrobservationer og prognoser fra mere end 4000 lufthavne (METAR og TAF).

De gule og røde prikker repræsenterer de meteorologiske stationer.

Flyt musen over at se navnet på stationen.

Så klik over at se vejr observationer og prognoser.

At skifte det kort: Klik på de grønne knapper med et sort kors for at zoome ind; på den grønne knap med en bindestreg for at zoome ud; eller på de grønne pile for tilstødende kort.


METAR-TAF: